Volver al catálogo

SL-8 R/B

ActivoPO
NORAD 10492·ROCKET BODY·🇷🇺 Russia

Lanzado Nov 24, 1977 desde Plesetsk Cosmodrome

Loading…

Próximos Pases (próximas 24 horas)

TLE

ActualizadoSource: Space-Track

Época: Sep 14, 2026, 04:36 UTC

1 10492U 77109B   26257.19201163  .00000053  00000-0  99157-4 0  9998
2 10492  82.9262 166.5129 0021288  90.8965  62.6748 13.19791453350368

Sigue SL-8 R/B en tiempo real con AllMySat

Download on the App Store